Regional Weather Roundup
Issued by NWS

Home | Current Version | Previous Version | Text Only | Print | Product List | Glossary Off
Versions: 1 2 3 4 5 6 7 8 9 10 11 12 13 14 15 16 17 18 19 20 21 22 23 24 25 26 27 28 29 30 31 32 33 34 35 36 37 38 39 40 41 42 43 44 45 46 47 48 49

000
ASUS45 KBOU 232107
RWRCO

WEATHER ROUNDUP FOR COLORADO
NATIONAL WEATHER SERVICE DENVER/BOULDER CO
300 PM MDT TUE SEP 23 2014

NOTE: "FAIR" INDICATES FEW OR NO CLOUDS BELOW 12000 FEET WITH NO
SIGNIFICANT WEATHER AND/OR OBSTRUCTIONS TO VISIBILITY.

COZ001>005-013-030-031-232200-
...NORTHWEST COLORADO...

CITY           SKY/WX    TMP DP  RH WIND       PRES   REMARKS
CRAIG          PTSUNNY   71  44  37 W13       30.24F
HAYDEN         CLOUDY    68  43  40 W13       30.26S
MEEKER         PTSUNNY   74  42  31 W9G20     30.25F
MOUNT WERNER   NOT AVBL
STEAMBOAT SPGS PTSUNNY   67  46  45 W10G16    30.26F
WALDEN         PTSUNNY   61  41  48 W13       30.34S
$$

COZ006>008-011-232200-
...WEST CENTRAL VALLEYS...

CITY           SKY/WX    TMP DP  RH WIND       PRES   REMARKS
GRAND JUNCTION SUNNY     81  47  30 NW9       30.15F
MONTROSE       MOSUNNY   78  44  29 N6        30.23F
EAGLE          MOSUNNY   72  45  37 SW15      30.27F
RIFLE          CLOUDY    74  49  41 W8        30.19F
DELTA          MOSUNNY   82  46  28 S7        30.18F
NUCLA          MOSUNNY   77  37  24 CALM      30.26F
$$

COZ017>023-064>068-232200-
...SOUTHWEST COLORADO...

CITY           SKY/WX    TMP DP  RH WIND       PRES   REMARKS
DURANGO        SUNNY     76  37  24 SW12      30.26F
CORTEZ         SUNNY     79  37  22 W9G16     30.24F
PAGOSA SPRINGS SUNNY     72  35  25 W14       30.32F
TELLURIDE      NOT AVBL
WOLF CREEK PAS MOSUNNY   46  36  66 SW12G18   30.59F
$$

COZ009-010-012-014-032>034-037-058>063-232200-
...CENTRAL COLORADO...

CITY           SKY/WX    TMP DP  RH WIND       PRES   REMARKS
ASPEN          PTSUNNY   67  42  40 N14       30.33F
BUENA VISTA    PTSUNNY   73  33  23 W14       30.30S
COPPER MTN     CLOUDY    52  34  50 W20G33    30.58S
BERTHOUD PASS  FOG       36  34  93 NW23G30   30.57S VSB<1/4
COTTONWOOD PAS PTSUNNY   63  32  31 W8G22     30.43F
GUNNISON       MOSUNNY   66  39  37 W7        30.34F
KREMMLING      PTSUNNY   63  45  51 S7        30.33S
LEADVILLE      PTSUNNY   56  32  40 NW15G21   30.44S
MONARCH PASS   CLOUDY    46  36  66 W29       30.68R
SALIDA         MOSUNNY   73  38  28 W6        30.34F
SUNLIGHT       PTSUNNY   59  43  55 CALM      30.55F
WILKERSON PASS NOT AVBL
$$

COZ069>075-232200-
...SAN LUIS VALLEY/SANGRE DE CRISTO MOUNTAINS...

CITY           SKY/WX    TMP DP  RH WIND       PRES   REMARKS
ALAMOSA        MOSUNNY   74  34  23 VRB5      30.28F
LA VETA PASS   PTSUNNY   59  36  41 W5        30.47S
SAGUACHE       MOSUNNY   72  37  28 NW16G25   30.32F
$$

COZ035-036-038>040-232200-
...NORTHERN COLORADO FRONT RANGE...

CITY           SKY/WX    TMP DP  RH WIND       PRES   REMARKS
DENVER INTL AP PTSUNNY   78  41  26 NW13      30.12S
DMNS CITY PARK   N/A     77  39  25 NW17G32   30.11S
AURORA         PTSUNNY   77  42  28 W12       30.14S
FRONT RANGE AP PTSUNNY   82  41  23 W8        30.13F
ERIE MUNI ARPT MOSUNNY   78  38  23 W16G23    30.10S
BOULDER MUN AP MOSUNNY   81  41  24 SW15G22   30.10S
CENTENNIAL     LGT RAIN  77  42  28 N12       30.15S
BROOMFIELD     PTSUNNY   81  39  22 W17G35    30.14S
FORT COLLINS   MOSUNNY   79  45  29 SE3       30.09F
LONGMONT       PTSUNNY   82  41  23 NE7       30.10S
$$

COZ041-046-047-076>085-087-088-232200-
...PIKES PEAK/PALMER DIVIDE AND SOUTHERN FOOTHILLS...

CITY           SKY/WX    TMP DP  RH WIND       PRES   REMARKS
COLO. SPRINGS  MOSUNNY   81  32  17 NW13G23   30.15F
A. F. ACADEMY  MOSUNNY   77  32  19 N10       30.17S
ELLICOTT       NOT AVBL
FALCON         CLOUDY    76  31  19 NW3       30.21F
FORT CARSON    PTSUNNY   79  37  22 NE7       30.13F
LIMON          PTSUNNY   80  42  25 N9        30.12S
MONUMENT HILL  PTSUNNY   72  34  25 NE9       30.22S
TRINIDAD       PTSUNNY   83  35  18 W8        30.13F
$$

COZ042>045-048>051-090-091-232200-
...NORTHEAST COLORADO...

CITY           SKY/WX    TMP DP  RH WIND       PRES   REMARKS
GREELEY ARPT   PTSUNNY   79  43  27 S7        30.09S
AKRON          PTSUNNY   78  50  37 W8        30.08S
BURLINGTON     MOSUNNY   79  51  37 SE7       30.05F
WRAY           SUNNY     87  44  22 W14G22    30.01S
STERLING       PTSUNNY   82  46  28 NW9       30.02F
HOLYOKE        SUNNY     84  45  24 W16       30.00S
FORT MORGAN    PTSUNNY   84  39  20 W9G17     30.07S
$$

COZ086-089-092>099-232200-
...SOUTHEAST COLORADO...

CITY           SKY/WX    TMP DP  RH WIND       PRES   REMARKS
PUEBLO         MOSUNNY   86  38  18 W12G21    30.04F
LA JUNTA       MOSUNNY   87  42  20 W5        30.02F
LAMAR          MOSUNNY   89  48  24 VRB6      29.99F
SPRINGFIELD      N/A     86  43  22 N7        30.03F
$$


USA.gov is the U.S. government's official web portal to all federal, state and local government web resources and services.